Long Beach, CA

9:49 PM PDT on September 21, 2017 (GMT -0700)
Long Beach

Weather History for KLGB - December, 2012

Change the Weather History Date:

Thursday, December 27, 2012

  Actual Average Record
Temperature  
Mean Temperature 53 °F 56 °F  
Max Temperature 63 °F 67 °F 84 °F (2013)
Min Temperature 43 °F 45 °F 34 °F (1966)
Degree Days  
Heating Degree Days 12 9  
Month to date heating degree days 199 234  
Since 1 July heating degree days 276 383  
Cooling Degree Days 0 0  
Month to date cooling degree days 0 0  
Year to date cooling degree days 1383 1125  
Growing Degree Days 3 (Base 50)    
Moisture  
Dew Point 36 °F    
Average Humidity 52    
Maximum Humidity 71    
Minimum Humidity 32    
Precipitation  
Precipitation 0.00 in 0.08 in 1.43 in (1971)
Month to date precipitation 2.24 1.63  
Year to date precipitation 8.05 11.94  
Since 1 July precipitation 3.64  
Sea Level Pressure  
Sea Level Pressure 30.01 in    
Wind  
Wind Speed 7 mph (WNW)    
Max Wind Speed 18 mph    
Max Gust Speed 22 mph    
Visibility 10 miles    
Events      
T = Trace of Precipitation, MM = Missing Value Source: NWS Daily Summary

Daily Weather History Graph

Daily Weather History Graph

Search for Another Location

Airport or City:

Trip Planner

Search our weather history database for the weather conditions in past years. The results will help you decide how hot, cold, wet, or windy it might be!

Date:

Astronomy

Dec. 27, 2012 Rise Set
Actual Time 6:56 AM PST 4:51 PM PST
Civil Twilight 6:28 AM PST 5:19 PM PST
Nautical Twilight 5:57 AM PST 5:50 PM PST
Astronomical Twilight 5:27 AM PST 6:21 PM PST
Moon 4:37 PM PST (12/27) 6:12 AM PST (12/27)
Length of Visible Light 10h 50m
Length of Day
9h 55m
Full, 100% of the Moon is Illuminated
Dec 27
Full
Dec 28
Full
Jan 4
Last Quarter
Jan 11
New
Jan 18
First Quarter

Hourly Weather History & Observations

Time (PST) Temp. Dew Point Humidity Pressure Visibility Wind Dir Wind Speed Gust Speed Precip Events Conditions
12:53 AM 53.1 °F 39.9 °F 61% 29.97 in 10.0 mi West 6.9 mph - N/A   Clear
1:53 AM 53.1 °F 37.0 °F 55% 29.98 in 10.0 mi West 11.5 mph - N/A   Clear
2:53 AM 52.0 °F 36.0 °F 54% 29.97 in 10.0 mi West 11.5 mph - N/A   Clear
4:53 AM 46.4 °F 33.8 °F 62% 29.96 in 10.0 mi Calm Calm - N/A   Clear
5:53 AM 46.9 °F 35.1 °F 63% 29.98 in 10.0 mi Calm Calm - N/A   Clear
6:53 AM 44.1 °F 36.0 °F 73% 30.00 in 10.0 mi Calm Calm - N/A   Clear
7:53 AM 48.0 °F 39.9 °F 74% 30.02 in 10.0 mi Calm Calm - N/A   Clear
8:53 AM 55.9 °F 37.0 °F 49% 30.02 in 10.0 mi NNW 8.1 mph - N/A   Mostly Cloudy
9:53 AM 57.9 °F 37.0 °F 46% 30.03 in 10.0 mi NNW 11.5 mph - N/A   Clear
10:53 AM 60.1 °F 35.1 °F 39% 30.01 in 10.0 mi NW 15.0 mph - N/A   Clear
11:53 AM 62.1 °F 33.1 °F 34% 29.99 in 10.0 mi NW 13.8 mph - N/A   Clear
12:53 PM 63.0 °F 32.0 °F 31% 29.96 in 10.0 mi NW 12.7 mph - N/A   Clear
1:53 PM 63.0 °F 32.0 °F 31% 29.95 in 10.0 mi NW 13.8 mph - N/A   Clear
2:53 PM 62.1 °F 35.1 °F 37% 29.96 in 10.0 mi West 13.8 mph - N/A   Clear
3:53 PM 60.1 °F 39.9 °F 47% 29.97 in 10.0 mi WNW 15.0 mph - N/A   Clear
4:53 PM 57.9 °F 41.0 °F 53% 29.99 in 10.0 mi West 11.5 mph - N/A   Clear
5:53 PM 57.0 °F 33.1 °F 40% 30.00 in 10.0 mi NW 10.4 mph - N/A   Clear
6:53 PM 55.0 °F 32.0 °F 42% 30.02 in 10.0 mi WNW 4.6 mph - N/A   Clear
7:53 PM 53.6 °F 33.8 °F 47% 30.03 in 10.0 mi NW 4.6 mph - N/A   Clear
8:53 PM 52.0 °F 32.0 °F 47% 30.05 in 10.0 mi Calm Calm - N/A   Clear
9:53 PM 48.0 °F 34.0 °F 58% 30.08 in 10.0 mi Calm Calm - N/A   Clear
10:53 PM 48.0 °F 36.0 °F 63% 30.10 in 10.0 mi Calm Calm - N/A   Clear
11:53 PM 48.0 °F 39.0 °F 71% 30.10 in 10.0 mi Calm Calm - N/A   Clear